Regional Weather Roundup
Issued by NWS

Home | Current Version | Previous Version | Graphics & Text | Print | Product List | Glossary On
Versions: 1 2 3 4 5 6 7 8 9 10 11 12 13 14 15 16 17 18 19 20 21 22 23 24 25 26 27 28 29 30 31 32 33 34 35 36 37 38 39 40 41 42 43 44 45 46 47 48 49 50
000
ASUS43 KFSD 220710
RWRSD

WEATHER ROUNDUP FOR SOUTH DAKOTA
NATIONAL WEATHER SERVICE SIOUX FALLS SD
200 AM CDT WED MAR 22 2017

NOTE: "FAIR" INDICATES FEW OR NO CLOUDS BELOW 12,000 FEET WITH NO
SIGNIFICANT WEATHER AND/OR OBSTRUCTIONS TO VISIBILITY.


SDZ001>005-009-010-012>017-220800-
NORTHWEST AND NORTH CENTRAL SOUTH DAKOTA

CITY           SKY/WX    TMP DP  RH WIND       PRES   REMARKS
BUFFALO          N/A     28  23  81 SE30G36   30.03F WCI  12
FAITH            N/A     27  23  85 SE22      30.23F WCI  13
MOBRIDGE       CLOUDY    27  15  61 SE20G28   30.34F WCI  13
$$

SDZ012>016-024>037-041>051-057-063-072>074-220800-
SOUTHWEST AND SOUTH CENTRAL SOUTH DAKOTA

CITY           SKY/WX    TMP DP  RH WIND       PRES   REMARKS
RAPID CTY ARPT CLOUDY    29  27  92 SE16      30.13F WCI  17
PIERRE         CLOUDY    31  19  61 SE18      30.35F WCI  19
CUSTER         CLOUDY    30  27  88 VRB6      30.09F WCI  24
ELLSWORTH AFB  CLOUDY    29  29 100 S6        30.11F WCI  23
PHILIP         CLOUDY    30  26  85 SE16      30.28F WCI  19
PINE RIDGE     LGT RAIN  36  33  89 SE12      30.16F
SPEARFISH      FAIR      28  28 100 CALM      30.00F
WINNER         CLOUDY    31  27  85 E21       30.33F WCI  18
$$

SDZ004>011-016>023-039-040-220800-
NORTHEAST SOUTH DAKOTA

CITY           SKY/WX    TMP DP  RH WIND       PRES   REMARKS
ABERDEEN       CLOUDY    19  13  77 E9        30.46F WCI   8
WATERTOWN      CLOUDY    19  13  77 E5        30.45F WCI  12
BROOKINGS      CLOUDY    22  16  78 E6        30.46F WCI  14
SISSETON         N/A     18  15  88 CALM      30.51S
$$

SDZ017-020-022-023-036>040-048>070-220800-
SOUTHEAST SOUTH DAKOTA

CITY           SKY/WX    TMP DP  RH WIND       PRES   REMARKS
SIOUX FALLS    CLOUDY    24  19  81 NE6       30.47S WCI  17
HURON          CLOUDY    26  18  71 E13       30.45F WCI  15
CHAMBERLAIN    CLOUDY    32  23  68 E16       30.39F WCI  21
MITCHELL       CLOUDY    28  19  69 E12       30.47S WCI  18
YANKTON        MOCLDY    28  19  69 E10       30.46S WCI  19
$$

ABBREVIATIONS USED IN REMARKS
   TC - TEMPERATURE IN CELSIUS
  WCI - WIND CHILL INDEX
   HX - HEAT INDEX
  VSB - VISIBILITY





USA.gov is the U.S. government's official web portal to all federal, state and local government web resources and services.